Lid_Strength_Index
3 3 3 4 3 3 3 3 2 2 1 1 1 0 -0 0 0 1 3 2 1 -2 0 2 3 3 2 3 2 3 6 8 7 7 6 5 7 5 5 5 5 4 4 3 1
2 3 3 3 3 3 3 3 2 2 1 1 1 0 0 0 2 3 -1 -2 -2 0 3 3 4 3 4 4 3 5 7 7 5 5 5 4 6 4 6 6 6 5 4 3 1
3 3 3 3 3 3 3 3 2 1 1 1 1 1 1 1 3 2 -3 -3 -2 -0 3 2 3 4 5 4 4 5 7 5 5 4 4 4 5 4 5 6 6 5 4 3 4
4 4 4 2 3 4 3 3 2 2 1 1 2 1 1 1 8 1 -2 -2 -1 1 3 3 4 5 5 5 4 6 5 5 4 4 5 5 4 4 4 4 4 4 4 4 4
4 4 4 3 2 4 3 3 3 2 1 1 2 2 2 4 3 -1 -2 -1 1 1 3 4 5 5 6 5 4 5 5 4 4 4 5 5 5 5 5 4 4 4 4 4 3
4 4 4 4 2 3 4 3 3 2 2 1 1 2 2 6 -0 -1 0 1 1 2 3 3 4 4 4 5 5 4 5 4 4 5 4 6 6 5 5 3 4 4 4 3 3
4 4 4 5 4 3 3 3 3 3 2 1 1 1 3 3 0 -0 1 1 1 2 4 3 3 4 4 5 4 4 6 5 5 5 5 4 7 7 4 4 4 4 3 3 3
5 5 4 5 5 4 3 4 3 3 2 1 1 1 4 1 -1 -0 0 2 1 1 2 2 2 3 4 3 5 6 6 8 5 5 5 5 8 5 3 4 5 4 3 3 2
5 5 5 5 5 5 4 4 3 2 2 2 1 2 4 2 3 0 0 3 3 2 1 2 2 4 4 6 7 6 9 8 7 5 5 6 7 5 4 5 4 4 3 3 2
5 5 5 5 5 5 5 5 3 3 2 2 1 4 3 4 2 1 0 1 3 3 3 4 4 6 6 7 10 9 9 8 8 6 6 7 7 5 4 4 4 4 3 3 3
5 5 5 5 5 5 6 3 3 4 3 5 4 6 5 2 0 2 1 2 2 4 6 5 7 8 7 6 6 7 8 8 7 5 7 7 7 6 4 5 4 4 4 3 3
5 5 4 4 5 6 5 6 4 3 6 3 4 3 3 2 4 3 1 4 4 6 5 6 8 6 5 6 7 8 8 8 7 6 6 7 7 6 5 5 4 4 4 3 3
4 3 3 4 5 5 5 5 3 3 7 5 4 5 4 3 5 4 2 3 5 6 6 8 6 6 6 7 8 7 8 8 8 7 6 7 8 7 5 4 4 4 3 3 3
3 3 3 4 6 3 5 3 3 3 9 8 7 5 5 5 5 3 2 3 5 7 6 6 5 6 7 8 7 9 6 7 8 8 11 7 11 8 6 6 5 4 4 3 3
3 3 3 4 4 4 3 2 3 3 16 7 7 3 5 7 6 6 3 5 7 6 6 7 7 7 8 7 6 8 6 7 7 8 9 9 10 8 6 7 6 5 4 3 3
3 3 3 3 4 3 2 2 2 10 15 8 7 7 7 7 7 6 6 5 5 7 6 6 5 6 6 6 6 5 7 7 7 8 12 9 10 10 8 7 6 5 4 3 3
4 3 3 1 2 1 1 3 10 12 7 9 8 7 8 8 7 7 8 9 10 11 10 7 7 6 6 7 6 7 8 12 13 13 13 9 10 9 6 6 5 5 4 4 3
4 4 2 0 -0 1 1 6 13 9 9 6 7 7 8 7 7 7 8 9 7 8 10 11 12 8 7 8 9 8 8 12 16 15 12 9 11 9 6 5 5 4 4 4 3
5 -0 -1 -0 -1 -0 4 10 9 8 7 7 7 8 9 7 7 7 8 8 7 6 10 11 11 7 6 6 7 10 11 7 11 10 12 11 9 7 6 6 5 5 5 4 4
2 1 1 -1 -2 1 6 9 8 6 6 6 9 8 10 10 10 10 10 8 8 6 6 8 13 8 7 7 7 8 7 12 11 17 17 13 11 11 8 7 6 5 5 4 4
1 4 1 -1 -0 4 9 9 7 5 5 7 8 9 8 9 8 9 10 8 7 7 6 8 10 10 8 10 9 9 10 10 10 12 17 18 13 8 8 7 7 6 5 4 4
2 6 0 -1 7 4 7 7 7 6 5 6 6 7 8 8 9 9 10 9 6 6 9 8 10 13 11 7 7 8 9 10 15 16 13 14 14 6 7 6 6 5 4 4 4
4 3 -0 1 9 7 6 7 6 7 7 7 8 7 6 9 11 9 8 6 6 7 9 8 13 15 13 9 7 9 9 8 9 10 14 17 14 6 6 6 5 5 5 5 4
4 7 3 2 3 7 8 7 8 5 6 6 7 6 8 9 8 10 9 7 6 6 7 7 10 13 16 13 12 13 11 10 11 17 15 14 12 9 8 8 7 5 5 5 4
3 6 5 7 6 6 6 7 8 9 6 6 8 8 10 12 10 10 9 8 7 7 7 9 13 11 10 10 9 10 10 10 11 11 14 12 11 9 7 6 6 5 5 5 4
5 5 3 4 6 7 8 8 8 9 8 9 9 9 8 11 10 12 9 9 9 8 9 9 13 10 12 10 10 11 10 10 10 10 11 10 10 7 6 5 6 5 5 5 5
2 2 4 7 6 7 7 8 8 7 6 6 7 8 9 8 6 6 7 7 7 9 11 11 11 13 14 10 11 13 11 10 10 9 10 12 9 6 7 7 6 5 5 5 4